User: anonymous   Login
Location: Unspecified
(0.0000°N, 0.0000°E)
Time: 00:58:03
(UTC+00:00)
Language:

STARLINK-11383 [DTC] - Orbit

View from above orbital plane
View from above orbital plane
View from above satellite
View from above satellite

Ground track
Ground track

The orbit is defined by the following mean orbital elements,

1 61883U          26145.51767442 +.00000000 +00000-0 +79596-5 0 00004
2 61883  53.1593 337.3556 0000996  91.1169 268.9963 15.69711947    00
Epoch (UTC): 25 May 2026 12:25:27
Eccentricity: 0.0000996
inclination: 53.1593°
perigee height: 359 km
apogee height: 360 km
right ascension of ascending node: 337.3556°
argument of perigee: 91.1169°
revolutions per day: 15.69711947
mean anomaly at epoch: 268.9963°

The dashed part of the orbit path shows where the satellite is in the earth's shadow,  

DLR